DW3128 Weather Reports


Display with metric or nautical units.
time (UTC)temp
F
wind
direction
speed
MPH
gust
MPH
rain 1hr
in
rain 24hr
in
rain mn
in
humidity
%
barometer
mb
20260506043807 63 317 5.0 10.0 0.00 0.00 0.00 75 1008.3
20260506043308 63 3 2.0 10.0 0.00 0.00 0.00 75 1008.1
20260506042307 63 340 8.0 15.0 0.00 0.00 0.00 75 1008.2
20260506041807 63 316 8.0 10.0 0.00 0.00 0.00 74 1008.2
20260506041308 64 315 4.0 7.0 0.00 0.00 0.00 74 1008.3
20260506035307 64 335 8.0 12.0 0.00 0.00 0.00 74 1008.3
20260506034307 64 25 6.0 12.0 0.00 0.00 0.00 74 1008.1
20260506033807 65 315 7.0 13.0 0.00 0.00 0.00 74 1008.1
20260506033307 65 330 7.0 9.0 0.00 0.00 0.00 74 1007.8
20260506032807 65 352 5.0 13.0 0.00 0.00 0.00 74 1007.5
20260506032307 65 326 6.0 16.0 0.00 0.00 0.00 74 1007.4
20260506031807 66 318 7.0 12.0 0.00 0.00 0.00 73 1007.4
20260506031307 66 327 5.0 9.0 0.00 0.00 0.00 74 1007.3
20260506030808 66 310 3.0 7.0 0.00 0.00 0.00 75 1007.3
20260506030308 66 338 3.0 7.0 0.00 0.00 0.00 74 1007.2
20260506025808 66 346 7.0 10.0 0.00 0.00 0.00 74 1006.9
20260506025307 66 316 3.0 9.0 0.00 0.00 0.00 74 1006.8
20260506024807 66 328 3.0 5.0 0.00 0.00 0.00 73 1006.7
20260506024307 66 332 3.0 6.0 0.00 0.00 0.00 73 1006.6
20260506023807 66 346 4.0 7.0 0.00 0.00 0.00 72 1006.3
20260506023307 66 355 5.0 7.0 0.00 0.00 0.00 72 1006.2
20260506022808 67 339 4.0 6.0 0.00 0.00 0.00 72 1006.4
20260506022307 67 336 2.0 6.0 0.00 0.00 0.00 71 1006.2
20260506021807 67 323 5.0 8.0 0.00 0.00 0.00 71 1006.1
20260506021307 67 346 7.0 9.0 0.00 0.00 0.00 70 1006.2
20260506020807 67 337 9.0 13.0 0.00 0.00 0.00 70 1006.1
20260506020307 68 315 10.0 15.0 0.00 0.00 0.00 70 1006.2
20260506015807 68 356 6.0 10.0 0.00 0.00 0.00 70 1006.0
20260506015307 69 312 7.0 9.0 0.00 0.00 0.00 70 1006.1
20260506014807 69 318 6.0 10.0 0.00 0.00 0.00 71 1005.8
20260506013808 69 328 4.0 5.0 0.00 0.00 0.00 71 1005.5
20260506013307 70 314 6.0 10.0 0.00 0.00 0.00 70 1005.3
20260506012808 70 314 5.0 9.0 0.00 0.00 0.00 70 1005.2
20260506012308 70 337 5.0 9.0 0.00 0.00 0.00 69 1005.0
20260506011807 71 331 7.0 9.0 0.00 0.00 0.00 69 1004.9
20260506011308 71 346 6.0 9.0 0.00 0.00 0.00 69 1004.6
20260506010807 71 319 2.0 7.0 0.00 0.00 0.00 68 1004.4
20260506010307 71 337 5.0 7.0 0.00 0.00 0.00 67 1004.4
20260506005807 72 344 6.0 9.0 0.00 0.00 0.00 67 1004.1
20260506005307 72 15 5.0 8.0 0.00 0.00 0.00 67 1004.3
20260506004807 72 341 4.0 7.0 0.00 0.00 0.00 67 1004.5
20260506004307 72 338 2.0 6.0 0.00 0.00 0.00 67 1004.3
20260506003807 73 348 4.0 9.0 0.00 0.00 0.00 66 1004.2
20260506003307 73 18 7.0 10.0 0.00 0.00 0.00 66 1004.0
20260506002807 73 312 5.0 9.0 0.00 0.00 0.00 66 1003.8
20260506002308 74 317 4.0 10.0 0.00 0.00 0.00 66 1003.8
20260506001808 74 321 5.0 9.0 0.00 0.00 0.00 65 1003.5
20260506001307 74 308 8.0 12.0 0.00 0.00 0.00 64 1003.8
20260506000807 75 28 5.0 10.0 0.00 0.00 0.00 64 1003.7
20260506000309 75 323 4.0 8.0 0.00 0.00 0.00 64 1003.5
20260505235807 75 356 9.0 15.0 0.00 0.00 0.00 64 1003.5
20260505234307 76 338 11.0 16.0 0.00 0.00 0.00 63 1003.5
20260505233307 77 315 11.0 15.0 0.00 0.00 0.00 62 1003.4
20260505232807 78 333 7.0 15.0 0.00 0.00 0.00 61 1003.4
20260505232307 79 308 12.0 16.0 0.00 0.00 0.00 59 1003.3
20260505231307 80 318 11.0 13.0 0.00 0.00 0.00 58 1003.2
20260505230808 80 2 7.0 15.0 0.00 0.00 0.00 60 1003.2
20260505230307 80 331 7.0 12.0 0.00 0.00 0.00 59 1003.1
20260505225807 81 2 6.0 16.0 0.00 0.00 0.00 58 1002.9
20260505225307 82 349 14.0 17.0 0.00 0.00 0.00 57 1003.1
20260505224807 83 11 6.0 10.0 0.00 0.00 0.00 58 1003.1
20260505224307 83 312 8.0 12.0 0.00 0.00 0.00 57 1002.8
20260505223807 84 346 7.0 15.0 0.00 0.00 0.00 57 1002.7
20260505223307 85 311 9.0 12.0 0.00 0.00 0.00 56 1002.6
20260505222307 85 341 6.0 10.0 0.00 0.00 0.00 54 1002.5
20260505221308 86 353 6.0 9.0 0.00 0.00 0.00 50 1002.4
20260505220807 86 318 5.0 13.0 0.00 0.00 0.00 50 1002.4
20260505220307 87 330 7.0 10.0 0.00 0.00 0.00 48 1002.3
20260505215808 88 316 11.0 15.0 0.00 0.00 0.00 47 1002.3
20260505214807 88 18 6.0 10.0 0.00 0.00 0.00 48 1002.1
20260505214307 89 326 8.0 12.0 0.00 0.00 0.00 47 1002.1
20260505213807 90 355 7.0 13.0 0.00 0.00 0.00 47 1002.2
20260505211807 91 202 7.0 7.0 0.00 0.00 0.00 48 1002.2
20260505211307 91 266 4.0 6.0 0.00 0.00 0.00 49 1002.4
20260505205307 90 207 7.0 8.0 0.00 0.00 0.00 48 1002.6
20260505204807 90 196 6.0 8.0 0.00 0.00 0.00 50 1002.7
20260505202807 90 198 7.0 9.0 0.00 0.00 0.00 53 1002.8
20260505202307 89 206 5.0 8.0 0.00 0.00 0.00 51 1002.7
20260505201307 89 221 6.0 9.0 0.00 0.00 0.00 51 1002.9
20260505200806 89 267 6.0 7.0 0.00 0.00 0.00 52 1002.9
20260505200307 89 246 7.0 9.0 0.00 0.00 0.00 51 1003.1
20260505195807 88 275 7.0 9.0 0.00 0.00 0.00 53 1003.1
20260505195306 88 243 9.0 12.0 0.00 0.00 0.00 51 1003.2
20260505194807 88 251 7.0 12.0 0.00 0.00 0.00 52 1003.2
20260505193807 88 211 9.0 13.0 0.00 0.00 0.00 51 1003.3
20260505193307 89 216 5.0 10.0 0.00 0.00 0.00 54 1003.2
20260505192807 89 176 10.0 13.0 0.00 0.00 0.00 55 1003.2
20260505192310 88 169 5.0 10.0 0.00 0.00 0.00 55 1003.1
20260505191806 88 200 12.0 18.0 0.00 0.00 0.00 58 1003.2
20260505191307 88 220 6.0 8.0 0.00 0.00 0.00 55 1003.3
20260505190807 87 191 7.0 9.0 0.00 0.00 0.00 57 1003.1
20260505190307 87 199 8.0 12.0 0.00 0.00 0.00 57 1003.2
20260505185807 87 195 9.0 13.0 0.00 0.00 0.00 56 1003.2
20260505185307 86 190 12.0 13.0 0.00 0.00 0.00 55 1003.1
20260505184807 86 221 7.0 13.0 0.00 0.00 0.00 59 1003.2
20260505184307 86 239 10.0 13.0 0.00 0.00 0.00 57 1003.1
20260505183807 86 213 7.0 12.0 0.00 0.00 0.00 59 1003.2
20260505183307 85 182 7.0 13.0 0.00 0.00 0.00 60 1003.2
20260505182307 85 206 6.0 10.0 0.00 0.00 0.00 63 1003.5
20260505181807 85 236 10.0 13.0 0.00 0.00 0.00 61 1003.4
20260505181306 85 229 10.0 15.0 0.00 0.00 0.00 62 1003.5
20260505180807 84 166 12.0 16.0 0.00 0.00 0.00 64 1003.4
20260505175306 84 193 7.0 10.0 0.00 0.00 0.00 64 1003.5
20260505174307 83 196 8.0 13.0 0.00 0.00 0.00 65 1003.6
20260505173807 83 198 9.0 13.0 0.00 0.00 0.00 65 1003.6
20260505173307 83 186 9.0 15.0 0.00 0.00 0.00 65 1003.6
20260505172807 83 198 9.0 10.0 0.00 0.00 0.00 67 1003.7
20260505172307 83 177 8.0 12.0 0.00 0.00 0.00 67 1003.7
20260505171807 82 206 10.0 16.0 0.00 0.00 0.00 69 1003.7
20260505171306 82 166 12.0 18.0 0.00 0.00 0.00 68 1003.7
20260505170807 82 200 8.0 17.0 0.00 0.00 0.00 69 1003.8
20260505170307 82 177 11.0 12.0 0.00 0.00 0.00 69 1003.7
20260505165806 82 185 12.0 17.0 0.00 0.00 0.00 68 1003.7
20260505165307 82 216 5.0 12.0 0.00 0.00 0.00 68 1003.7
20260505164806 82 177 6.0 13.0 0.00 0.00 0.00 69 1003.6
20260505164307 82 175 11.0 17.0 0.00 0.00 0.00 70 1003.6
20260505163806 81 184 12.0 18.0 0.00 0.00 0.00 68 1003.6
20260505163307 81 191 13.0 24.0 0.00 0.00 0.00 68 1003.5
20260505162807 81 179 12.0 15.0 0.00 0.00 0.00 69 1003.5
20260505162307 81 172 9.0 15.0 0.00 0.00 0.00 70 1003.5
20260505161807 80 193 13.0 16.0 0.00 0.00 0.00 70 1003.4
20260505161307 80 186 12.0 17.0 0.00 0.00 0.00 71 1003.3
20260505160807 80 180 13.0 17.0 0.00 0.00 0.00 71 1003.4
20260505160306 79 191 11.0 16.0 0.00 0.00 0.00 74 1003.4
20260505153306 77 190 11.0 12.0 0.00 0.00 0.00 75 1003.3
20260505152807 77 189 15.0 20.0 0.00 0.00 0.00 75 1003.3
20260505152306 77 187 13.0 18.0 0.00 0.00 0.00 76 1003.2
20260505151807 76 164 11.0 16.0 0.00 0.00 0.00 78 1003.3
20260505151307 76 172 10.0 24.0 0.00 0.00 0.00 77 1003.4
20260505150806 76 197 10.0 12.0 0.00 0.00 0.00 78 1003.4
20260505150307 75 188 7.0 12.0 0.00 0.00 0.00 79 1003.4
20260505140307 72 178 13.0 18.0 0.00 0.00 0.00 82 1003.4
20260505130307 70 184 12.0 15.0 0.00 0.00 0.00 84 1002.9
20260505124806 70 135 15.0 20.0 0.00 0.00 0.00 84 1003.1
20260505123307 70 204 12.0 17.0 0.00 0.00 0.00 85 1002.8
20260505122806 70 179 16.0 21.0 0.00 0.00 0.00 85 1002.7
20260505122307 70 183 13.0 17.0 0.00 0.00 0.00 85 1002.7
20260505121807 70 171 12.0 17.0 0.00 0.00 0.00 85 1002.6
20260505121306 70 172 13.0 22.0 0.00 0.00 0.00 84 1002.6
20260505120807 70 161 11.0 23.0 0.00 0.00 0.00 85 1002.6
20260505120306 70 151 11.0 20.0 0.00 0.00 0.00 84 1002.7
20260505115807 70 159 16.0 21.0 0.00 0.00 0.00 85 1002.6
20260505115306 69 188 12.0 18.0 0.00 0.00 0.00 85 1002.6
20260505114807 69 177 11.0 15.0 0.00 0.00 0.00 85 1002.4
20260505114307 69 187 14.0 20.0 0.00 0.00 0.00 85 1002.2
20260505113806 69 182 12.0 18.0 0.00 0.00 0.00 85 1002.2
20260505113307 69 170 11.0 17.0 0.00 0.00 0.00 85 1002.4
20260505112306 69 193 11.0 18.0 0.00 0.00 0.00 85 1002.4
20260505111806 69 168 12.0 17.0 0.00 0.00 0.00 85 1002.4
20260505110807 69 180 8.0 13.0 0.00 0.00 0.00 85 1002.3
20260505110306 69 182 10.0 15.0 0.00 0.00 0.00 85 1002.2
20260505101806 69 161 13.0 13.0 0.00 0.00 0.00 84 1002.3
20260505101307 69 203 11.0 15.0 0.00 0.00 0.00 84 1002.3
20260505100806 69 166 8.0 12.0 0.00 0.00 0.00 84 1002.3
20260505095807 69 138 5.0 12.0 0.00 0.00 0.00 84 1002.4
20260505095306 69 177 6.0 10.0 0.00 0.00 0.00 84 1002.4
20260505094806 70 183 7.0 12.0 0.00 0.00 0.00 84 1002.4
20260505094306 70 169 8.0 13.0 0.00 0.00 0.00 84 1002.4
20260505093806 70 164 13.0 16.0 0.00 0.00 0.00 84 1002.3
20260505093306 70 163 10.0 12.0 0.00 0.00 0.00 84 1002.4
20260505092808 70 163 10.0 15.0 0.00 0.00 0.00 83 1002.5
20260505092306 70 161 9.0 10.0 0.00 0.00 0.00 83 1002.6
20260505091806 70 162 7.0 15.0 0.00 0.00 0.00 83 1002.5
20260505091307 70 168 9.0 12.0 0.00 0.00 0.00 82 1002.6
20260505090806 70 161 9.0 10.0 0.00 0.00 0.00 82 1002.6
20260505090306 70 175 12.0 15.0 0.00 0.00 0.00 82 1002.6
20260505085807 70 162 7.0 10.0 0.00 0.00 0.00 82 1002.7
20260505084307 71 165 9.0 12.0 0.00 0.00 0.00 81 1002.8
20260505083807 71 161 9.0 15.0 0.00 0.00 0.00 81 1002.8
20260505083306 71 129 10.0 13.0 0.00 0.00 0.00 81 1002.8
20260505082807 71 160 7.0 8.0 0.00 0.00 0.00 80 1002.8
20260505081807 71 162 12.0 16.0 0.00 0.00 0.00 80 1002.9
20260505081306 71 153 7.0 10.0 0.00 0.00 0.00 80 1002.9
20260505080807 71 165 9.0 12.0 0.00 0.00 0.00 79 1002.8
20260505080307 71 184 9.0 15.0 0.00 0.00 0.00 79 1002.9
20260505075806 71 188 8.0 13.0 0.00 0.00 0.00 78 1002.8
20260505075307 72 163 9.0 12.0 0.00 0.00 0.00 78 1002.8
20260505074807 72 146 7.0 12.0 0.00 0.00 0.00 77 1002.8
20260505074306 72 170 9.0 13.0 0.00 0.00 0.00 77 1003.0
20260505073806 72 159 10.0 12.0 0.00 0.00 0.00 77 1003.1
20260505073306 72 151 8.0 12.0 0.00 0.00 0.00 76 1003.1
20260505072806 72 139 9.0 13.0 0.00 0.00 0.00 76 1003.3
20260505072306 72 146 7.0 13.0 0.00 0.00 0.00 76 1003.4
20260505071306 73 153 6.0 8.0 0.00 0.00 0.00 75 1003.5
20260505070306 73 166 5.0 6.0 0.00 0.00 0.00 75 1003.7
20260505065306 73 163 10.0 13.0 0.00 0.00 0.00 74 1003.8
20260505064808 73 150 11.0 16.0 0.00 0.00 0.00 74 1004.0
20260505063807 73 171 11.0 17.0 0.00 0.00 0.00 74 1004.0
20260505063306 73 164 8.0 10.0 0.00 0.00 0.00 74 1004.0
20260505062806 73 171 11.0 15.0 0.00 0.00 0.00 74 1004.1
20260505062306 73 174 12.0 13.0 0.00 0.00 0.00 74 1004.2
20260505061306 73 170 11.0 15.0 0.00 0.00 0.00 74 1004.1
20260505060805 73 147 12.0 15.0 0.00 0.00 0.00 74 1004.0
20260505054806 73 169 10.0 17.0 0.00 0.00 0.00 74 1004.1
20260505054306 73 142 10.0 15.0 0.00 0.00 0.00 74 1004.1
20260505053806 73 155 8.0 16.0 0.00 0.00 0.00 74 1004.1
20260505053306 74 168 12.0 16.0 0.00 0.00 0.00 74 1004.0
20260505052806 74 177 9.0 15.0 0.00 0.00 0.00 74 1004.1
20260505052307 74 160 9.0 16.0 0.00 0.00 0.00 73 1004.0
20260505051807 74 147 13.0 23.0 0.00 0.00 0.00 73 1003.9
20260505050814 74 152 12.0 18.0 0.00 0.00 0.00 73 1004.1
20260505050307 74 153 12.0 22.0 0.00 0.00 0.00 73 1004.1